{"data":{"norad_id":66414,"intl_designator":"2025-258C","name":"HULIANWANG DIGUI-98","alt_names":[],"object_type":"PAYLOAD","status":"ACTIVE","operator":null,"country":"PRC","launch_date":"2025-11-10","launch_site_code":"WSC","launch_vehicle":null,"mission":null,"orbit_class":"UNKNOWN","rcs_meters":null,"size_class":null,"mass_kg":null,"dimensions":null,"purposes":[],"wikipedia_slug":null,"has_3d_model":false,"image_url":null,"decayed_at":null,"tle_current":{"epoch":"2026-05-25T01:48:19.922112Z","epoch_age_seconds":62465,"freshness":"FRESH","line1":"1 66414U 25258C   26145.07523058 -.00000079  00000+0  96486-4 0  9994","line2":"2 66414  50.0066  18.7560 0001157  56.4778 303.6205 13.29319547 26650","mean_motion":13.29319547,"eccentricity":0.0001157,"inclination_deg":50.0066,"raan_deg":18.756,"arg_perigee_deg":56.4778,"mean_anomaly_deg":303.6205,"bstar":9.6486e-5,"rev_number":2665,"period_min":108.32609835986,"perigee_km":1148.4600044247,"apogee_km":1150.2018605043,"semimajor_km":7527.4679324645,"source":"CELESTRAK","updated_at":"2026-05-25T13:38:06.205785Z"}}}